Printer-friendly version
Follow the MPC on Twitter Follow the MPC on Facebook The MPC blog
Minor Planet Center

MPEC 2008-C26 : 2008 CL1

The following Minor Planet Electronic Circular may be linked-to from your own Web pages, but must not otherwise be redistributed electronically.

A form allowing access to any MPEC is at the bottom of this page.


Read MPEC 2008-C25 Read MPEC 2008-C27


M.P.E.C. 2008-C26                                Issued 2008 Feb. 4, 15:32 UT

     The Minor Planet Electronic Circulars contain information on unusual
         minor planets and routine data on comets.  They are published
   on behalf of Commission 20 of the International Astronomical Union by the
          Minor Planet Center, Smithsonian Astrophysical Observatory,
                          Cambridge, MA 02138, U.S.A.

             Prepared using the Tamkin Foundation Computer Network

                              MPC@CFA.HARVARD.EDU
          URL http://www.cfa.harvard.edu/iau/mpc.html  ISSN 1523-6714

                                   2008 CL1

Observations:
     K08C01L* C2008 02 02.44348 15 05 17.85 +37 48 06.7          18.6   EC026704
     K08C01L  C2008 02 02.45531 15 05 16.48 +37 47 59.2          19.3   EC026704
     K08C01L  C2008 02 02.46713 15 05 15.02 +37 47 52.0          18.9   EC026704
     K08C01L  C2008 02 02.47896 15 05 13.63 +37 47 43.9          19.1   EC026704
     K08C01L  C2008 02 03.13071 15 03 59.48 +37 39 56.0          18.7 V EC026B03
     K08C01L  C2008 02 03.13443 15 03 59.01 +37 39 53.6          18.5 V EC026B03
     K08C01L  C2008 02 03.13815 15 03 58.56 +37 39 51.6          18.8 V EC026B03
     K08C01L  C2008 02 03.14187 15 03 58.10 +37 39 48.9          18.5 V EC026B03
     K08C01L  C2008 02 03.14559 15 03 57.60 +37 39 46.2          18.6 V EC026B03
     K08C01L  C2008 02 03.14931 15 03 57.13 +37 39 43.5          18.8 V EC026B03
     K08C01L  C2008 02 03.17148 15 03 54.28 +37 39 28.0          18.4 R EC026118
     K08C01L  C2008 02 03.17346 15 03 54.01 +37 39 26.6          18.4 R EC026118
     K08C01L  C2008 02 03.17544 15 03 53.78 +37 39 25.4          18.3 R EC026118
     K08C01L  C2008 02 03.39995 15 03 28.81 +37 36 45.0          18.4 R EC026854
     K08C01L  C2008 02 03.40282 15 03 28.39 +37 36 42.9          18.4 R EC026854
     K08C01L  C2008 02 03.40570 15 03 28.11 +37 36 40.1          18.7 R EC026854
     K08C01L  C2008 02 03.47373 15 03 19.09 +37 35 58.6          18.4 R EC026711
     K08C01L  C2008 02 03.48151 15 03 18.13 +37 35 53.1                 EC026711
     K08C01L SC2008 02 03.48928 15 03 17.14 +37 35 47.6          18.3 R EC026711
     K08C01L  C2008 02 03.98178 15 02 17.55 +37 29 24.2          18.4 R EC026A80
     K08C01L  C2008 02 03.98538 15 02 17.14 +37 29 21.4          18.9 R EC026A80
     K08C01L  C2008 02 03.98898 15 02 16.61 +37 29 18.8          18.6 R EC026A80
     K08C01L  C2008 02 04.50222 15 01 10.02 +37 23 13.8          18.1 R EC026711
     K08C01L  C2008 02 04.51000 15 01 08.91 +37 23 08.0          18.2 R EC026711
     K08C01L  C2008 02 04.51778 15 01 07.75 +37 23 02.0          18.4 R EC026711

Observer details:
118 Modra.  Observers S. Gajdos, J. Vilagi.  0.6-m f/5.5 reflector + CCD.
704 Lincoln Laboratory ETS, New Mexico.  Observers M. Bezpalko, D. Torres,
    R. Kracke, G. Spitz, J. Kistler.  Measurers J. Stuart, S. Scruggs.  1.0-m
    f/2.15 reflector + CCD.
711 McDonald Observatory.  Observer J. G. Ries.  0.76-m reflector + CCD
    + prime-focus corrector.
854 Sabino Canyon Observatory, Tucson.  Observer J. E. McGaha.  0.36-m f/10.0
    Schmidt-Cassegrain + CCD.
A80 Lindenberg Observatory.  Observer A. Knoefel.  0.30-m f/4 reflector + CCD.
B03 Alter Satzberg, Vienna.  Observer M. Pietschnig.  0.35-m f/7
    Schmidt-Cassegrain + CCD.

Orbital elements:
2008 CL1                                                 Earth MOID = 0.1016 AU
Epoch 2007 Oct. 27.0 TT = JDT 2454400.5                 MPC
M  39.00897              (2000.0)            P               Q
n   1.04786091     Peri.    4.41974     +0.97695634     +0.16329582
a   0.9599905      Node   344.04276     -0.20793512     +0.58286818
e   0.1378912      Incl.   29.99610     -0.04815908     +0.79598942
P   0.94           H   19.1           G   0.15           U   9
Residuals in seconds of arc
080202 704  0.7-  0.5+    080203 B03  0.1-  0.3-    080203 711  1.5+  0.4-
080202 704  0.0   0.5+    080203 118  0.0   0.4-    080203 A80  0.1+  0.4+
080202 704  0.3-  0.8+    080203 118  0.2-  0.5-    080203 A80  0.7+  0.0
080202 704  0.4+  0.3+    080203 118  0.0   0.3-    080203 A80  0.2-  0.2-
080203 B03  0.1-  0.4-    080203 854  0.2-  0.1+    080204 711  0.4-  0.5+
080203 B03  0.1-  0.3-    080203 854  0.9-  0.1-    080204 711  0.2-  0.5+
080203 B03  0.1+  0.2+    080203 854  0.1+  1.1-    080204 711  0.5-  0.3+
080203 B03  0.2+  0.1+    080203 711  0.0   0.0
080203 B03  0.1-  0.1-    080203 711  0.9+  0.2-

Ephemeris:
2008 CL1                 a,e,i = 0.96, 0.14, 30                  q = 0.8276
Date    TT    R. A. (2000) Decl.     Delta      r     Elong.  Phase     V
2008 02 04    15 02.23   +37 29.5    0.274    1.072   101.0    64.5    18.7
2008 02 06    14 57.70   +37 03.3    0.259    1.074   103.0    63.4    18.6
2008 02 08    14 52.36   +36 33.8    0.244    1.077   105.2    62.1    18.4
2008 02 10    14 46.06   +35 59.9    0.229    1.079   107.7    60.7    18.2
2008 02 12    14 38.64   +35 20.0    0.214    1.080   110.4    58.9    18.0
2008 02 14    14 29.87   +34 32.2    0.199    1.082   113.4    56.9    17.8
2008 02 16    14 19.53   +33 33.7    0.185    1.084   116.8    54.4    17.6
2008 02 18    14 07.32   +32 20.8    0.171    1.085   120.7    51.5    17.3
2008 02 20    13 52.93   +30 48.6    0.157    1.086   125.2    48.0    17.1
2008 02 22    13 36.03   +28 50.7    0.144    1.088   130.4    43.8    16.8
2008 02 24    13 16.29   +26 18.9    0.132    1.089   136.5    38.7    16.4
2008 02 26    12 53.53   +23 04.2    0.121    1.090   143.7    32.5    16.1
2008 02 28    12 27.76   +18 58.6    0.112    1.090   152.0    25.2    15.7
2008 03 01    11 59.35   +13 58.9    0.105    1.091   161.5    16.8    15.3
2008 03 03    11 29.12   +08 12.8    0.101    1.092   171.7     7.5    14.9
2008 03 05    10 58.24   +02 01.1    0.100    1.092   175.8     3.8    14.7
2008 03 07    10 28.06   -04 06.5    0.103    1.092   165.8    12.9    15.1
2008 03 09    09 59.75   -09 42.6    0.108    1.092   155.8    21.9    15.5
2008 03 11    09 34.13   -14 31.0    0.116    1.092   146.9    29.8    15.9
2008 03 13    09 11.53   -18 27.7    0.126    1.092   139.1    36.6    16.3
2008 03 15    08 51.99   -21 37.5    0.137    1.092   132.5    42.2    16.6
2008 03 17    08 35.26   -24 08.2    0.150    1.091   126.8    46.9    16.9
2008 03 19    08 21.05   -26 07.8    0.163    1.091   122.0    50.7    17.2
2008 03 21    08 08.99   -27 43.4    0.177    1.090   117.8    53.9    17.5
2008 03 23    07 58.77   -29 00.5    0.191    1.089   114.2    56.6    17.7
2008 03 25    07 50.11   -30 03.6    0.206    1.088   111.0    58.8    18.0

Timothy B. Spahr             (C) Copyright 2008 MPC           M.P.E.C. 2008-C26

Read MPEC 2008-C25 Read MPEC 2008-C27


MPEC number:

Enter an MPEC number in one of the following forms:

  • 1997-B01 (the full form)
  • J97B01 (the packed version of the full form)
  • B01 (the abbreviated form)

Valid HTML 4.01!